STARLINK-1812 (47126 NORAD) Tracking and Keplerian Element Data
This shows tracking and keplerian element data for the satellite.
Feedback or suggestion? Click here.
Element | Value |
Catalog | 47126 |
Name | STARLINK-1812 |
Epoch Orbit | 182 |
Epoch Day | 20.91667824 |
Epoch Year | 2021 |
RAAN | 75.0349 |
Inclination | 53.0559 |
Eccentricity | 0.0001304 |
Argument of Perigee | 60.192 |
Mean Anonmoly | 354.3102 |
Mean Motion | 15.4045072 |
Decay Rate | -0.01084865 |
L1 | 1 47126U 20088E 21020.91667824 -.01084865 00000-0 -28753-1 0 9996 |
L2 | 2 47126 53.0559 75.0349 0001304 60.1920 354.3102 15.40450720 1820 |
Live tracking and technical data element details for STARLINK-1812 (NORAD 47126). STARLINK-1812 can be tracked NOW for your location showing map with azimuth and elevation plus other details from your city location.
Track the satellite on the map from your city or location and see movement details for azimuth, elevation, latitude, longitude, range, height, and movement on the map or in text.
IsCatalogInMostPopularTable: catalog: 47126, numindb: 18
Update: records affected: 1
GetName: 47126 STARLINK-1812
Hit Count: updated at: Sat, 23 Jan 2021 17:29:14 GMT